This is the latest recevied weather packets stored in our database for station/object KK7PZE-13. If no packets are shown the sender has not sent any weather packets the latest 10 day(s).
| Time | Temp. | Humidity | Pressure | Rain* | Wind** | Luminosity | Snow |
|---|---|---|---|---|---|---|---|
| 1777538159 | 18.33° C | 19% | 1011.6 hPa | 0 mm | - | - | - |
| 1777537559 | 18.89° C | 18% | 1011.7 hPa | 0 mm | - | - | - |
| 1777536960 | 18.89° C | 18% | 1011.7 hPa | 0 mm | - | - | - |
| 1777535759 | 18.33° C | 19% | 1011.5 hPa | 0 mm | - | - | - |
| 1777535159 | 18.89° C | 18% | 1011.9 hPa | 0 mm | - | - | - |
| 1777533961 | 19.44° C | 18% | 1012.3 hPa | 0 mm | - | - | - |
| 1777533363 | 19.44° C | 18% | 1012.1 hPa | 0 mm | - | - | - |
| 1777532759 | 19.44° C | 18% | 1012.1 hPa | 0 mm | - | - | - |
| 1777532159 | 20° C | 17% | 1011.9 hPa | 0 mm | - | - | - |
| 1777531559 | 20° C | 18% | 1012.1 hPa | 0 mm | - | - | - |
| 1777530959 | 19.44° C | 18% | 1012.3 hPa | 0 mm | - | - | - |
| 1777529759 | 20° C | 17% | 1012.3 hPa | 0 mm | - | - | - |
| 1777529161 | 20.56° C | 17% | 1012.6 hPa | 0 mm | - | - | - |
| 1777528559 | 21.11° C | 16% | 1012.3 hPa | 0 mm | - | - | - |
| 1777527990 | 20.56° C | 17% | 1012.2 hPa | 0 mm | - | - | - |
| 1777527959 | 20.56° C | 17% | 1012.2 hPa | 0 mm | - | - | - |
| 1777527359 | 21.11° C | 17% | 1012.5 hPa | 0 mm | - | - | - |
| 1777526759 | 21.67° C | 17% | 1012.5 hPa | 0 mm | - | - | - |
| 1777526159 | 22.78° C | 16% | 1012.4 hPa | 0 mm | - | - | - |
| 1777524960 | 22.78° C | 15% | 1012.4 hPa | 0 mm | - | - | - |
| 1777524360 | 23.33° C | 16% | 1012.4 hPa | 0 mm | - | - | - |
| 1777523762 | 23.33° C | 16% | 1012.3 hPa | 0 mm | - | - | - |
| 1777523160 | 23.33° C | 15% | 1012.3 hPa | 0 mm | - | - | - |
| 1777522561 | 23.33° C | 15% | 1012.2 hPa | 0 mm | - | - | - |
| 1777521962 | 23.33° C | 15% | 1012 hPa | 0 mm | - | - | - |
* Rain latest hour (hover to see other rain measurements)
** Current wind speed in m/s (hover to see current wind gust speed)